Find Starlink 35797

NORAD ID: 66364 Int'l Des: 2025-254 Owner: SPXS Country: US Constellation: starlink operational
LEOCIRCULAR

Current View

Loading 3D Globe...

About Starlink 35797

Description loading...

Upcoming Passes

Passes for default location (London). Set your location on the main map for personalized predictions.

Altitude History

Loading altitude history...

Two-Line Element Set

1 66364U 25254S 26146.55121682 .00013181 00000-0 45640-3 0 9998
2 66364 53.1588 231.0033 0001039 91.6291 268.4829 15.30198429 30891
Epoch: May 26, 2026 • Age: 10 hours

Current Status

Altitude 479.7 km
Velocity 7.63 km/s
Sub-Earth Point 47.16°N, 54.23°E
Launch Date Nov 6, 2025
Age 0.5 years
Type internet

Technical Details

Classification Payload
Mass 575.00 kg
Dry Mass 530.00 kg
Total Mass 575.00 kg
Length 0.30 m
Diameter 4.10 m
Span 29.00 m
Shape Box + pan
Manufacturer SPXS
Bus Type Starlink V2MO
Phase Status In Orbit
Owner/State SPXS/US

Most Searched